GW1931 Weather Reports


Display with metric or nautical units.
time (UTC)temp
F
wind
direction
speed
MPH
gust
MPH
rain 1hr
in
rain 24hr
in
rain mn
in
humidity
%
barometer
mb
20260906082012 77 123 0.0 0.0 0.00 0.00 0.00 99 1015.4
20260906075008 78 114 0.0 0.0 0.00 0.00 0.00 99 1015.4
20260906072007 78 136 0.0 0.0 0.00 0.00 0.00 99 1015.7
20260906065002 78 136 0.0 0.0 0.00 0.00 0.00 99 1015.5
20260906062003 77 135 0.0 0.0 0.00 0.00 0.00 99 1015.5
20260906055000 77 121 0.0 0.0 0.00 0.00 0.00 99 1015.5
20260906051957 77 133 0.0 0.0 0.00 0.00 0.00 99 1015.7
20260906044954 77 118 0.0 0.0 0.00 0.21 0.21 99 1015.7
20260906041953 77 131 0.0 0.0 0.00 0.21 0.21 99 1015.7
20260906034948 78 117 0.0 0.0 0.00 0.21 0.21 99 1016.0
20260906031948 78 141 0.0 0.0 0.00 0.21 0.21 99 1015.8
20260906024944 78 115 0.0 0.0 0.00 0.21 0.21 99 1015.6
20260906021943 78 107 1.0 2.0 0.00 0.21 0.21 98 1015.4
20260906014943 78 119 0.0 0.0 0.00 0.21 0.21 97 1015.0
20260906011941 79 141 0.0 0.0 0.00 0.21 0.21 96 1014.4
20260906004939 80 129 0.0 0.0 0.00 0.21 0.21 94 1014.5
20260906001937 80 120 0.0 0.0 0.00 0.21 0.21 93 1015.0
20260905234936 81 127 0.0 1.0 0.00 0.21 0.21 94 1015.6
20260905231936 82 137 0.0 0.0 0.00 0.20 0.20 95 1015.5
20260905224932 79 122 0.0 0.0 0.00 0.20 0.20 97 1015.4
20260905221927 80 127 0.0 0.0 0.00 0.12 0.12 92 1015.4
20260905214924 86 120 0.0 1.0 0.54 0.09 0.09 80 1014.7
20260905211922 95 113 0.0 2.0 0.00 0.00 0.00 58 1014.5
20260905204919 99 109 2.0 6.0 0.00 0.00 0.00 50 1014.5
20260905201920 98 334 3.0 3.0 0.00 0.00 0.00 52 1014.8
20260905194917 96 327 2.0 7.0 0.00 0.00 0.00 57 1014.9
20260905191914 97 124 0.0 1.0 0.00 0.00 0.00 59 1015.5
20260905184910 96 120 0.0 1.0 0.00 0.00 0.00 61 1015.8
20260905181906 96 146 2.0 3.0 0.00 0.00 0.00 63 1016.5
20260905174906 95 146 1.0 1.0 0.00 0.00 0.00 63 1016.9
20260905171906 93 312 1.0 2.0 0.00 0.00 0.00 64 1017.4
20260905164902 88 129 0.0 1.0 0.00 0.00 0.00 73 1017.8
20260905161856 91 102 1.0 2.0 0.00 0.00 0.00 70 1017.7
20260905154853 89 174 2.0 2.0 0.00 0.00 0.00 77 1017.7
20260905151852 87 25 2.0 3.0 0.00 0.00 0.00 80 1017.7
20260905144851 87 131 0.0 0.0 0.00 0.00 0.00 84 1017.7
20260905141852 87 129 0.0 0.0 0.00 0.00 0.00 86 1017.4
20260905134851 83 115 0.0 0.0 0.00 0.00 0.00 93 1017.4
20260905131846 78 110 0.0 0.0 0.00 0.00 0.00 99 1017.6
20260905124845 76 115 0.0 0.0 0.00 0.00 0.00 99 1017.1
20260905121844 74 116 0.0 0.0 0.00 0.00 0.00 99 1016.8
20260905114840 74 109 0.0 0.0 0.00 0.00 0.00 99 1016.4
20260905111838 74 108 0.0 0.0 0.00 0.00 0.00 99 1016.2
20260905104838 74 109 0.0 0.0 0.00 0.00 0.00 99 1016.0
20260905101834 75 108 0.0 0.0 0.00 0.00 0.00 99 1016.0
20260905094829 74 108 0.0 0.0 0.00 0.00 0.00 99 1015.8
20260905091827 75 108 0.0 0.0 0.00 0.00 0.00 99 1015.9
20260905084824 75 122 0.0 0.0 0.00 0.00 0.00 99 1016.1